Погода в Ардасане

Россия / Республика Бурятия     51°26′11″N   106°34′35″E
темп.,
°C
ветер,
м/с
пор.,
м/с
влажн.,
%
обл.,
%
осадки,
мм/ч
давл.,
гПа
погр.,
м
19 января, вт
вт1923:00−21ююз229799 0.0 101921
02:00−22ююз229755 0.0 101722
05:00−23ю229931 0.0 101424
08:00−22ююз2210035 0.0 101431
11:00−18ю239646 0.0 1013114
14:00−13ю228848 0.0 1011121
17:00−14ююз119376 0.0 101220
20:00−14ю119588 0.0 101421
20 января, ср
ср2023:00−13сз129599 0.1 101528
02:00−15ссз229387 0.1 101723
05:00−18сз229654 0.0 101920
08:00−20ссз129532 0.0 102120
11:00−15ю118851 0.0 102063
14:00−12ююв118652 0.0 1017251
17:00−14сз269066 0.0 1020160
20:00−14сз6119262 0.6 1027972
21 января, чт
чт2123:00−18ссз4109194 0.5 1032593
02:00−23зсз229668 0.6 103421
05:00−25сз229438 0.0 103420
08:00−25сз229320 0.0 103520
11:00−20зсз11850 0.0 1034108
14:00−16ююв22810 0.0 1032305
17:00−22ю12995 0.0 103120
20:00−25ююз129915 0.0 103120
22 января, пт
пт2223:00−24ююз1210083 0.0 102923
02:00−23ююв1110091 0.0 102751
05:00−24ююв11100100 0.0 102426
08:00−25ююв11100100 0.1 102422
11:00−21ююв1195100 0.0 1023105
14:00−18ююв229195 0.0 1019192
17:00−22ююв119921 0.0 101826
20:00−24ююв1110040 0.0 101824
23 января, сб
сб2323:00−23ю2210089 0.0 101732
02:00−23ю1210094 0.1 101624
05:00−22ю1199100 0.0 101621
08:00−21ююв119898 0.0 101721
11:00−18юв1195100 0.0 101675
14:00−15юв229299 0.0 1013204
17:00−18с009798 0.0 101420
20:00−15сз229499 0.0 101727